Orbital Elements at Epoch 2459200.5 (2020-Dec-17.0) TDB
Reference: JPL 39 (heliocentric ecliptic J2000)
Element | Value | Uncertainty (1-sigma) | Units |
e | .1715995457554395 | 2.5703e-08 | |
a | 2.782416835500924 | 1.1173e-08 | au |
q | 2.304955370426677 | 7.6629e-08 | au |
i | 4.700030799115628 | 7.0674e-07 | deg |
node | 128.7434252634373 | 1.3888e-05 | deg |
peri | 247.1368130343043 | 1.3727e-05 | deg |
M | 288.0552315250532 | 7.3017e-06 | deg |
tp | 2459539.288323766181 (2021-Nov-20.78832377) | 3.5663e-05 | TDB |
period | 1695.242046658282 4.64 | 1.0211e-05 2.796e-08 | d yr |
n | .2123590555753641 | 1.2791e-09 | deg/d |
Q | 3.25987830057517 | 1.309e-08 | au |
|
| | Orbit Determination Parameters
Additional Information
|